CZ-6A DEB, 60884

Orbit data source: Space-Track

CZ-6A DEB, 60884 is space debris in LEO originally from a launch on Tue, 06 Aug 2024 UTC launched from the Taiyaun Space Center, China (TSC). Debris objects in space refer to the collection of defunct objects orbiting the Earth. Examples of debris include non-operational satellites, rocket bodies, and fragments generated from explosions, collisions, or faulty payload assembly.

Loading next visibility...
Identifier
60884, 2024-140KP
Orbit
LEO
Country
Flag of CNCN / PRC
Related business
Manufacturer
SAST
Mission
Spacecraft
Bus & Motor
Unknown
Mass
Unknown
Launch date (UTC)
2024-08-06 (2 years ago)
Launch vehicle
Unknown
Launch site
Taiyaun Space Center, China (TSC)
Object type
Payload
Rocket body
Debris
Shape & HBR
Unknown shape, 0.1 m
Radar Cross Section
Medium (>0.1 m² and <1 m²)

Expand to show TLE details & history
Last TLE update: 13 hours ago

TLE from 13 hours ago
0 CZ-6A DEB
1 60884U 24140KP  26171.29824583  .00000444  00000-0  26332-3 0  9996
2 60884  89.0649 281.8757 0137458 225.9840 132.9948 14.01466942 93791
Epoch: 2026-06-20T07:09Z
TLE epoch observation values (Epoch: 2026-06-20T07:09:28.439Z)
Latitude
-0.00002°
Longitude
-94.00767°
Altitude
960.602 km
Speed
7.336 km/s
True Right ascension
18h 47m 30s
True Declination
0° 00' 00"
Sunlit
Object was in full shadow at epoch
Visualization orbit readout
Latitude
Unknown
Longitude
Unknown
Altitude
Unknown
Speed
Unknown
Apparent Right ascension
Unknown
Apparent Declination
Unknown
Sunlit
N/A
Visualization observer readout
Local Sidereal Time
07:16:57
Azimuth
Unknown
Elevation
Unknown
Doppler factor
Unknown
Orbital elements
Apogee altitude
985.544 km
Perigee altitude
785.849 km
Semi-major axis
7,263.833 km
Eccentricity
0.01375
Inclination
89.0649°
RAAN
281.8757°
Arg. of periapsis
225.984°
True anomaly
134.13347°
Mean anomaly
132.9948°
Eccentric anomaly
133.56547°
Mean motion
3.50586 °/min
Orbital period
102.69 mins
BSTAR
0.00026332
Loading maneuver chart data...
Computing Atmospheric mass density...
Loading historical data...
Loading historical data...
Loading historical data...
Loading historical data...
Loading historical data...
Loading historical data...
Loading historical data...

Documentation

Showing up to 5 results
|